This demonstration page uses our WeatherBlox Daily Observations layout. Learn more.

Left ArrowRight Arrow

Hourly Observations for April 12, 2020

Temp ( °F °C ) Dew Point ( °F °C ) Humidity (%) Winds ( mph kmh ) Pressure ( in mb ) Visibility ( mi km ) Precip ( " mm )
12:15 am 00:15 Clear 46 7.7 32 undefined 59 59 NNE 20 31 29.61 1003 10 16 N/A
12:35 am 00:35 Clear 45 7 35 1.5 68 68 NNE 20 31 29.64 1004 10 16 N/A
12:55 am 00:55 Clear 44 6.9 36 2 71 71 NNE 18 30 29.65 1004 10 16 N/A
1:15 am 01:15 Clear 44 6.6 37 2.5 75 75 NNE 20 31 29.65 1004 10 16 N/A
1:35 am 01:35 Partly Cloudy 43 6.3 37 2.7 78 78 NNE 22 35 29.66 1004 10 16 N/A
1:55 am 01:55 Partly Cloudy 43 6.2 37 3 80 80 NNE 23 37 29.65 1004 10 16 N/A
2:15 am 02:15 Mostly Cloudy 43 6.1 37 3 81 81 NNE 23 37 29.65 1004 10 16 N/A
2:35 am 02:35 Cloudy 43 6 37 3 81 81 NNE 29 46 29.65 1004 10 16 N/A
2:55 am 02:55 Cloudy 43 6 37 2.7 80 80 NNE 29 46 29.64 1004 10 16 N/A
3:15 am 03:15 Cloudy 41 5.1 36 2.1 81 81 N 30 48 29.65 1004 10 16 N/A
3:35 am 03:35 Cloudy 39 4 34 1.1 82 82 N 23 37 29.66 1004 10 16 N/A
3:55 am 03:55 Cloudy 38 3.2 33 0.7 84 84 N 31 50 29.66 1005 10 16 N/A
4:15 am 04:15 Cloudy 37 2.7 33 0.3 84 84 NNE 29 46 29.68 1005 10 16 N/A
4:35 am 04:35 Cloudy 37 2.5 32 undefined 84 84 N 26 43 29.70 1006 10 16 N/A
4:55 am 04:55 Cloudy 36 2 32 -0.1 86 86 N 25 41 29.72 1006 10 16 N/A
5:15 am 05:15 Cloudy with Light Rain 34 1.2 32 undefined 92 92 N 30 48 29.73 1007 5 8 N/A
5:35 am 05:35 Cloudy with Light Rain 34 1 32 undefined 93 93 N 26 43 29.73 1007 5 8 N/A
5:55 am 05:55 Cloudy 33 0.6 32 -0.2 94 94 N 26 43 29.75 1007 7 11 N/A
6:15 am 06:15 Cloudy 33 0.5 31 -0.6 92 92 N 24 39 29.77 1008 10 16 N/A
6:35 am 06:35 Cloudy 32 0.1 30 -1.2 91 91 N 36 57 29.77 1008 7 11 N/A
6:55 am 06:55 Cloudy 32 undefined 29 -1.5 90 90 N 31 50 29.81 1010 7 11 N/A
7:15 am 07:15 Cloudy with Mist and Fog 32 undefined 30 -1.3 91 91 N 24 39 29.83 1010 5 8 N/A
7:35 am 07:35 Cloudy with Light Wintry Mix 32 -0.2 29 -1.5 91 91 N 30 48 29.85 1011 4 6 N/A
7:55 am 07:55 Cloudy with Mist and Fog 31 -0.5 29 -1.7 92 92 N 32 52 29.85 1011 4 6 N/A
8:15 am 08:15 Cloudy with Mist and Fog 31 -0.7 28 -2.2 90 90 N 25 41 29.88 1012 5 8 N/A
8:35 am 08:35 Cloudy 31 -0.7 28 -2.3 89 89 N 29 46 29.90 1013 7 11 N/A
8:55 am 08:55 Cloudy 31 -0.6 28 -2.2 89 89 N 26 43 29.92 1013 7 11 N/A
9:15 am 09:15 Cloudy with Mist and Fog 31 -0.6 28 -2.5 87 87 N 25 41 29.93 1014 5 8 N/A
9:35 am 09:35 Cloudy with Light Wintry Mix 31 -0.6 28 -2.5 87 87 N 29 46 29.93 1014 3 5 N/A
9:55 am 09:55 Cloudy 31 -0.8 27 -2.9 86 86 N 24 39 29.92 1013 10 16 N/A
10:15 am 10:15 Cloudy with Light Wintry Mix 30 -1 27 -2.7 88 88 N 25 41 29.94 1014 7 11 N/A
10:35 am 10:35 Cloudy 30 -0.9 27 -2.9 86 86 N 23 37 29.93 1014 10 16 N/A
10:55 am 10:55 Windy with Snow Likely 31 -0.8 27 -2.7 87 87 N 23 37 29.94 1014 2 3 N/A
11:15 am 11:15 Windy with Snow Likely 31 -0.7 28 -2.1 90 90 N 23 37 29.95 1014 1 1 N/A
11:35 am 11:35 Windy with Snow Likely 31 -0.4 28 -2 89 89 N 28 44 29.97 1015 3 4 N/A
11:55 am 11:55 Windy with Snow Likely 32 undefined 28 -2.2 85 85 N 28 44 29.97 1015 5 8 N/A
12:15 pm 12:15 Cloudy 32 -0.2 27 -2.6 84 84 N 30 48 29.99 1015 10 16 N/A
12:35 pm 12:35 Cloudy 32 undefined 27 -2.8 82 82 N 33 54 29.98 1015 10 16 N/A
12:55 pm 12:55 Cloudy 32 -0.2 26 -3.1 81 81 N 30 48 29.99 1015 10 16 N/A
1:15 pm 13:15 Cloudy 32 undefined 26 -3.1 80 80 N 29 46 29.98 1015 10 16 N/A
1:35 pm 13:35 Cloudy 31 -0.6 25 -4.1 77 77 N 26 43 30.00 1016 10 16 N/A
1:55 pm 13:55 Cloudy 32 -0.2 25 -4 76 76 N 30 48 30.02 1016 10 16 N/A
2:15 pm 14:15 Cloudy 32 undefined 25 -3.8 76 76 N 29 46 30.02 1017 10 16 N/A
2:35 pm 14:35 Cloudy 32 undefined 25 -4.1 74 74 N 29 46 30.02 1017 10 16 N/A
2:55 pm 14:55 Cloudy 32 undefined 23 -5 69 69 N 24 39 30.03 1017 10 16 N/A
3:15 pm 15:15 Cloudy 32 undefined 22 -5.6 66 66 N 31 50 30.04 1017 10 16 N/A
3:35 pm 15:35 Cloudy 33 0.3 22 -5.3 66 66 N 31 50 30.04 1017 10 16 N/A
3:55 pm 15:55 Cloudy 32 undefined 21 -5.9 65 65 N 30 48 30.05 1018 10 16 N/A
4:15 pm 16:15 Cloudy 33 0.7 22 -5.3 65 65 N 29 46 30.06 1018 10 16 N/A
4:35 pm 16:35 Cloudy 34 1 21 -6.1 59 59 N 29 46 30.07 1018 10 16 N/A
4:55 pm 16:55 Cloudy 34 1 21 -6.2 59 59 N 25 41 30.07 1018 10 16 N/A
5:15 pm 17:15 Cloudy 34 1.1 19 -7 55 55 N 25 41 30.07 1018 10 16 N/A
5:35 pm 17:35 Mostly Cloudy 34 1.2 18 -7.7 52 52 N 28 44 30.08 1019 10 16 N/A
5:55 pm 17:55 Mostly Cloudy 34 1 18 -8 51 51 N 26 43 30.10 1019 10 16 N/A
6:15 pm 18:15 Mostly Cloudy 33 0.8 18 -7.9 53 53 N 25 41 30.11 1020 10 16 N/A
6:35 pm 18:35 Partly Cloudy 32 0.2 17 -8.3 53 53 N 28 44 30.11 1020 10 16 N/A
6:55 pm 18:55 Partly Cloudy 32 -0.1 16 -8.8 52 52 N 20 31 30.14 1021 10 16 N/A
7:15 pm 19:15 Partly Cloudy 31 -0.5 16 -8.9 53 53 N 21 33 30.16 1021 10 16 N/A
7:35 pm 19:35 Partly Cloudy 30 -1.3 16 -9 56 56 N 18 30 30.18 1022 10 16 N/A
7:55 pm 19:55 Partly Cloudy 29 -1.7 17 -8.6 60 60 N 17 28 30.19 1022 10 16 N/A
8:15 pm 20:15 Mostly Cloudy 28 -2.1 17 -8.5 62 62 N 20 31 30.20 1023 10 16 N/A
8:35 pm 20:35 Partly Cloudy 28 -2.5 16 -8.7 63 63 N 16 26 30.21 1023 10 16 N/A
8:55 pm 20:55 Partly Cloudy 27 -2.8 17 -8.6 65 65 N 14 22 30.22 1023 10 16 N/A
9:15 pm 21:15 Partly Cloudy 26 -3.1 17 -8.6 66 66 N 13 20 30.24 1024 10 16 N/A
9:35 pm 21:35 Clear 26 -3.3 16 -8.7 67 67 N 15 24 30.23 1024 10 16 N/A
9:55 pm 21:55 Clear 26 -3.5 16 -8.8 67 67 NNW 14 22 30.25 1024 10 16 N/A
10:15 pm 22:15 Clear 25 -4 16 -8.8 70 70 NNW 13 20 30.25 1025 10 16 N/A
10:35 pm 22:35 Clear 24 -4.2 17 -8.6 72 72 NNW 15 24 30.27 1025 10 16 N/A
10:55 pm 22:55 Clear 24 -4.3 17 -8.6 72 72 NNW 13 20 30.26 1025 10 16 N/A
11:15 pm 23:15 Clear 24 -4.5 17 -8.6 73 73 NW 13 20 30.28 1025 10 16 N/A
11:35 pm 23:35 Clear 24 -4.7 16 -8.7 74 74 NNW 10 17 30.27 1025 10 16 N/A
11:55 pm 23:55 Clear 23 -4.9 16 -8.9 74 74 NNW 13 20 30.27 1025 10 16 N/A

Powered by AerisWeather